Theta_e
310 309 309 309 309 308 307 306 305 305 305 306 306 306 306 306 306 299 294 296 296 291 293 297 299 294 294 293 291 295 298 301 304 294 293 293 291 294 292 293 293 291 289 289 291 289 289 309 313 301 301 311 316 319
310 309 309 309 309 309 308 306 305 305 305 305 306 306 306 305 305 302 289 295 297 293 295 298 302 303 299 298 293 293 298 298 303 299 300 298 294 295 291 289 299 294 294 292 294 294 305 319 315 318 316 316 317 315
310 309 309 309 309 309 309 307 305 305 305 305 306 306 305 305 305 302 291 292 292 291 294 294 296 300 299 299 297 292 296 300 298 305 301 298 296 297 292 295 296 300 306 301 302 314 318 318 321 324 325 323 324 322
309 309 309 309 309 309 309 307 306 305 305 305 306 305 305 305 304 304 292 291 291 291 288 294 304 300 304 297 297 296 297 298 300 302 298 296 295 297 293 295 296 301 305 304 304 311 313 316 318 321 326 328 328 328
309 309 309 309 309 309 309 307 306 305 305 305 305 305 304 304 304 300 294 294 294 293 289 292 298 301 301 301 301 296 295 295 296 295 295 295 294 296 296 297 299 305 304 302 302 309 310 312 317 322 323 325 328 327
308 308 308 308 309 309 308 307 306 305 304 305 305 304 304 303 303 293 294 297 297 296 292 288 296 299 300 299 300 296 295 296 295 295 293 295 298 296 292 292 305 308 310 310 308 311 314 315 320 323 321 323 330 328
308 308 308 308 308 308 308 307 305 305 304 304 304 304 304 304 295 289 293 298 301 296 293 290 292 299 301 298 298 296 294 293 293 292 291 292 294 296 293 292 302 309 309 311 316 316 313 317 316 319 322 325 322 325
307 307 307 307 308 308 307 306 306 305 304 304 305 305 304 304 300 293 296 302 300 294 295 289 291 297 303 295 294 294 292 292 292 293 293 292 292 293 291 296 298 305 310 310 313 316 317 318 319 319 319 319 320 320
306 306 307 307 307 307 306 306 305 305 305 305 304 304 296 293 292 296 310 305 298 297 291 291 289 290 302 298 298 299 295 290 294 292 291 293 290 289 293 296 297 303 306 308 308 316 317 315 314 315 315 316 316 318
306 306 306 306 307 306 306 305 305 304 304 304 295 292 291 295 307 307 299 295 295 295 293 290 293 293 297 297 295 294 295 294 290 294 294 291 290 294 301 302 302 304 305 305 303 302 303 304 305 306 308 314 314 317
307 307 307 306 307 306 305 305 305 304 299 291 288 292 300 303 298 295 291 290 291 291 293 293 293 292 300 294 293 295 292 294 289 293 293 289 291 299 303 302 304 305 307 306 306 306 305 306 306 307 309 310 313 315
306 306 307 306 306 306 305 305 305 296 291 293 293 297 294 295 292 289 288 290 290 290 294 292 292 295 300 304 296 297 293 294 290 297 294 290 296 299 302 304 304 304 306 306 307 307 307 309 308 309 309 311 312 314
305 306 306 306 306 306 305 305 304 301 298 292 294 290 292 291 287 287 285 288 289 293 297 297 296 299 301 303 298 295 291 290 299 294 293 297 302 302 303 305 306 307 306 305 305 306 307 308 310 310 310 312 312 313
304 305 306 306 306 306 305 305 305 302 292 291 291 281 286 284 288 289 289 289 294 299 298 298 296 296 298 297 298 293 295 296 293 292 293 301 304 304 305 307 306 304 305 305 305 305 306 306 307 309 310 310 312 311
304 305 306 305 305 305 305 305 304 295 294 292 294 286 287 291 291 293 295 296 299 300 299 296 296 295 292 293 293 293 292 290 291 291 295 298 301 301 301 302 301 302 302 303 303 304 304 305 306 306 308 308 310 312
304 305 303 305 305 305 305 303 297 294 294 293 291 289 293 292 291 293 295 296 299 299 299 296 292 291 291 291 291 291 291 288 292 295 298 298 298 299 299 300 301 302 302 302 302 303 304 304 305 305 306 307 309 310
302 299 305 305 305 305 303 295 293 291 293 293 291 293 292 291 293 297 298 298 300 299 296 296 290 290 293 290 291 293 291 293 296 297 298 297 297 298 299 300 302 306 307 307 306 304 303 308 311 311 305 304 306 308
299 303 305 305 301 300 296 295 294 293 290 291 290 291 297 299 299 297 299 299 296 295 294 292 294 289 289 291 293 294 296 298 298 297 298 298 299 300 303 306 309 310 310 306 303 306 306 309 310 308 303 304 304 311
301 302 305 303 299 294 292 293 294 291 292 291 293 293 300 301 298 299 298 296 296 296 295 293 291 289 292 293 293 295 297 297 296 297 298 300 302 306 307 309 310 311 311 310 311 311 311 311 311 311 308 311 308 310
305 305 304 304 301 296 295 293 296 291 290 293 296 294 295 296 299 296 295 295 293 293 291 291 292 293 294 297 297 298 298 299 298 297 298 300 306 308 308 309 308 309 309 310 310 306 310 310 310 309 309 309 308 308
299 301 302 298 295 294 292 292 291 292 293 294 296 295 297 296 293 292 291 293 292 289 291 298 297 296 298 299 300 300 300 301 301 302 302 302 306 307 307 307 308 307 306 307 308 308 306 307 309 309 308 308 308 309
296 303 296 297 293 296 292 296 293 294 296 297 298 299 296 291 289 289 291 290 289 291 292 295 297 297 297 298 300 304 306 305 306 305 302 304 304 306 305 306 307 307 308 308 308 307 307 308 309 309 308 308 307 309
301 298 295 297 292 291 290 301 295 296 292 296 296 294 290 290 290 291 287 288 290 292 294 294 296 301 301 304 306 304 306 306 306 305 306 307 307 308 306 306 308 307 307 307 307 307 306 303 305 305 304 304 305 307
301 293 292 292 290 284 294 293 295 293 290 288 287 285 285 287 290 289 289 290 293 298 300 301 303 303 304 304 303 304 306 307 306 304 303 303 304 306 307 306 307 307 306 306 305 306 306 305 302 306 306 306 306 305
286 284 287 279 289 291 290 292 287 286 284 287 285 285 291 293 289 288 288 293 297 299 301 303 303 303 302 302 303 305 307 307 305 302 303 304 303 301 302 302 301 301 301 302 301 302 302 303 302 303 303 303 302 302
280 287 284 288 287 288 285 284 283 285 286 287 290 293 293 291 288 287 292 296 298 300 303 302 303 302 303 304 304 305 307 309 308 306 305 306 305 302 300 299 299 301 304 306 304 305 305 304 304 304 304 304 299 304
280 285 290 292 290 289 290 291 291 291 290 290 292 293 292 288 287 293 298 301 301 305 306 306 305 305 305 306 307 308 309 310 309 308 308 308 309 309 306 301 301 305 309 309 308 309 307 306 306 306 306 306 307 306
290 290 287 291 288 291 291 291 291 291 292 296 297 293 292 292 292 298 301 303 306 308 308 308 309 308 306 305 305 306 307 306 306 307 306 305 305 306 306 308 303 297 303 305 306 304 306 307 303 303 305 303 304 304
289 293 293 292 293 293 294 294 295 297 298 299 297 295 296 300 303 304 304 307 308 307 306 306 306 307 307 306 306 306 306 305 301 300 300 299 297 301 300 299 299 298 298 299 295 298 302 304 305 304 304 302 301 301
294 296 293 295 293 293 297 300 299 302 303 302 303 302 302 302 303 306 305 305 305 305 305 306 305 306 305 305 304 304 301 303 306 304 300 296 297 298 299 299 300 300 299 299 300 298 297 300 298 304 302 301 299 299
299 297 296 296 296 300 302 304 305 304 303 302 303 301 300 301 303 305 305 305 305 306 305 304 304 306 306 306 304 303 300 301 301 305 304 299 299 300 300 301 301 301 302 302 301 301 301 303 304 305 304 301 299 297
298 296 295 293 294 299 302 300 299 299 301 301 301 301 301 300 298 301 304 305 303 302 302 303 303 304 304 302 305 304 298 301 302 302 303 302 302 302 303 303 303 303 304 303 302 302 302 301 301 301 300 299 299 297
299 299 299 297 296 296 297 296 294 295 297 297 297 299 299 298 297 301 305 309 307 306 305 305 306 305 302 301 301 300 297 298 295 293 295 296 297 298 300 300 302 303 303 302 301 301 300 300 298 298 298 297 297 297
Wind_Speed
13 12 11 10 10 8 7 7 7 9 9 12 14 15 16 18 19 7 4 3 3 1 6 3 3 1 3 2 2 6 3 5 5 5 3 1 2 2 1 2 1 3 4 3 3 4 6 2 3 7 9 2 16 17
15 13 11 11 10 9 8 7 6 7 9 10 13 14 15 16 17 12 3 3 1 3 7 4 10 12 8 9 3 3 3 1 2 4 2 1 2 3 1 2 4 1 5 4 7 6 4 4 5 5 2 3 3 1
15 14 12 12 11 10 9 8 7 7 8 10 12 13 14 14 14 10 3 4 3 3 6 4 4 3 4 6 5 2 2 3 2 3 3 2 3 2 2 3 3 3 2 3 2 1 4 7 6 6 4 3 3 3
14 13 13 12 12 11 10 9 8 7 8 10 11 12 13 13 13 11 1 1 2 1 1 8 4 6 4 5 5 4 4 3 3 2 2 2 1 1 2 3 2 3 4 1 3 4 5 5 6 7 8 5 7 7
14 13 13 13 12 12 11 10 8 8 8 9 10 11 13 14 14 7 3 3 2 3 3 6 9 6 7 6 7 5 5 3 3 3 2 2 2 2 1 1 2 1 2 3 4 4 3 4 2 5 7 6 4 5
14 14 13 12 12 11 12 10 9 8 8 10 10 11 12 13 13 3 3 1 2 1 0 5 5 6 3 2 4 4 3 3 3 2 2 3 3 4 1 1 5 4 3 5 3 2 0 2 1 5 5 7 6 6
13 12 12 11 11 11 11 9 8 8 8 8 10 11 12 11 2 2 4 3 5 3 1 5 6 4 3 3 3 2 3 1 3 1 1 1 2 3 3 3 5 6 3 2 5 7 3 3 2 3 5 4 3 3
14 13 12 11 10 11 10 8 7 6 7 9 10 12 13 14 6 5 5 12 6 2 1 2 6 4 5 1 1 2 2 3 2 2 1 2 3 2 2 7 6 5 5 4 5 2 5 4 3 4 3 2 1 2
16 14 13 12 11 12 10 8 8 6 6 8 12 15 4 1 1 4 4 12 2 3 2 1 2 4 3 2 1 3 2 1 1 2 3 4 1 3 7 4 3 2 4 8 5 7 6 5 3 2 2 2 2 2
18 16 15 14 13 12 10 9 7 4 5 8 3 3 3 4 7 3 5 3 3 2 0 3 1 4 3 2 2 2 2 1 1 5 3 3 4 3 5 5 3 3 7 7 8 5 3 4 3 2 2 1 2 3
20 19 18 16 15 13 11 10 6 1 6 2 1 2 3 9 3 2 1 1 1 3 4 5 5 2 2 3 2 1 1 1 0 5 4 1 2 3 7 7 7 8 9 9 7 5 5 5 4 5 5 2 4 6
18 18 19 17 16 14 12 10 8 3 3 4 3 3 3 3 3 0 3 3 4 5 4 4 5 4 1 3 3 0 1 2 5 1 2 2 0 3 4 6 6 7 7 8 6 6 6 6 5 3 2 3 4 2
13 19 19 17 16 15 12 10 10 5 3 2 1 1 3 3 2 4 4 4 3 3 3 3 3 4 1 2 3 2 2 5 1 1 2 2 1 2 3 3 4 4 5 4 4 3 4 3 4 3 4 3 5 4
15 16 19 17 16 15 12 10 8 4 3 1 3 3 4 4 5 5 5 4 5 3 2 1 2 3 3 3 3 3 4 2 1 1 1 1 0 2 3 1 1 5 6 6 6 5 5 4 5 5 5 6 5 6
14 17 19 17 17 14 12 11 9 2 1 2 2 4 6 5 4 4 4 3 3 1 2 1 3 3 1 2 1 2 2 1 1 2 2 2 3 4 5 4 5 6 6 6 5 6 7 6 6 6 7 7 6 6
13 18 6 19 17 14 13 8 3 1 2 2 3 3 4 2 3 2 3 3 2 1 2 2 3 3 1 3 2 2 0 2 3 2 2 1 3 5 6 6 6 7 7 7 6 6 7 7 7 7 5 6 7 7
10 1 20 19 16 15 11 3 2 3 3 3 4 4 3 4 5 2 2 3 0 2 1 2 2 3 1 1 2 2 2 2 2 2 2 3 4 6 6 6 7 8 7 7 5 6 7 7 7 5 5 4 3 4
3 14 21 19 9 7 1 1 2 3 5 5 2 4 1 3 1 3 2 2 1 2 2 2 3 2 2 1 3 2 1 2 2 2 3 3 4 6 5 7 8 8 4 4 6 6 5 5 3 1 1 2 3 3
12 12 20 15 5 3 3 3 3 3 5 3 4 2 2 3 3 2 2 3 1 1 4 3 4 2 1 2 2 1 1 1 2 3 3 4 4 5 7 6 4 5 5 4 5 3 3 4 3 3 3 3 3 3
17 17 16 7 5 1 2 3 2 2 3 3 2 2 0 1 3 2 4 5 3 3 5 3 1 2 2 2 2 2 2 2 2 3 3 3 3 4 4 4 3 4 4 4 4 6 3 4 5 4 4 5 3 2
7 4 5 2 2 2 2 2 2 3 3 1 3 1 1 2 4 4 4 4 4 2 1 1 2 1 2 1 1 1 2 1 2 2 2 3 3 3 2 3 3 3 3 3 3 4 6 4 3 3 4 4 3 4
3 9 2 2 2 3 3 3 3 2 1 2 2 1 3 3 3 3 4 4 1 2 2 1 1 2 2 2 2 3 3 4 4 4 5 4 2 2 3 3 2 3 3 3 3 3 3 4 3 4 4 4 5 6
8 4 1 3 2 0 4 2 2 2 2 2 2 3 2 2 2 3 2 2 3 3 2 2 3 4 4 3 2 3 3 3 2 2 1 1 1 2 2 3 3 3 3 4 3 3 3 4 6 5 5 5 5 6
4 2 2 3 4 3 4 4 1 2 3 3 2 2 1 1 2 2 2 3 3 2 1 2 2 2 2 2 2 2 2 2 3 2 1 3 3 2 2 2 3 3 2 2 3 3 4 4 4 4 4 5 5 4
3 4 3 5 2 3 4 3 3 4 1 2 1 0 0 1 1 1 2 3 2 2 2 2 3 3 2 1 1 2 2 1 2 3 2 3 3 3 4 4 3 2 1 4 3 4 4 4 4 5 5 4 5 6
1 2 2 1 3 2 2 2 1 1 1 2 2 1 1 1 2 4 3 2 2 2 2 3 3 2 1 1 2 1 1 1 2 3 2 2 3 4 4 3 2 3 2 2 2 1 1 2 1 1 2 1 3 3
1 2 2 1 2 2 1 0 1 1 2 3 2 3 3 3 4 3 2 2 2 2 2 2 2 2 2 2 2 3 2 1 2 2 1 2 1 1 3 4 4 5 2 4 5 5 5 5 6 6 6 4 5 4
3 1 1 1 1 2 1 2 2 3 3 3 2 4 3 4 3 2 3 1 2 1 1 1 2 3 3 1 1 3 4 2 2 3 3 1 1 3 3 4 4 9 4 4 5 4 4 5 5 4 4 5 4 4
2 2 2 2 2 3 3 3 3 3 3 4 2 2 2 1 2 2 1 3 2 0 3 3 2 1 2 2 3 4 4 3 2 2 4 3 3 3 2 1 2 2 1 1 5 6 3 5 6 6 5 4 3 3
2 3 2 2 2 3 4 5 3 3 2 2 3 0 1 2 1 1 3 2 2 1 1 0 2 2 3 3 3 5 1 4 6 5 5 5 6 4 4 5 5 3 2 2 2 1 5 4 4 2 2 3 3 3
4 3 2 3 3 1 1 2 3 3 3 3 3 3 2 2 4 2 1 2 1 2 3 4 4 4 4 4 3 2 4 2 5 9 6 4 4 4 5 5 4 4 5 5 3 2 2 1 3 4 4 5 6 6
4 5 3 0 1 2 1 1 2 3 4 3 2 2 1 2 2 3 4 5 4 4 6 5 6 7 5 5 5 4 4 3 3 4 8 5 5 3 4 4 4 3 4 5 5 5 6 6 5 5 5 5 5 5
1 2 2 2 2 2 2 3 3 3 3 3 3 3 3 4 5 5 2 6 7 9 7 7 7 5 3 0 4 6 4 3 4 6 9 9 9 6 4 3 4 5 7 6 5 5 6 6 5 5 5 5 5 5
Wind_Direction
203 214 226 235 245 253 264 293 318 332 336 343 347 351 358 0 3 17 278 325 70 271 278 253 284 208 16 41 47 290 8 346 16 61 88 226 177 259 72 238 350 162 139 186 96 107 254 40 145 178 213 270 192 202
201 209 222 233 240 243 247 267 290 313 322 335 343 346 353 358 2 17 330 329 333 175 247 264 256 252 190 213 159 339 163 242 186 81 34 70 358 18 57 266 338 11 156 205 168 213 281 312 299 358 137 216 206 143
202 205 216 226 236 239 238 247 270 290 309 321 328 340 345 351 356 13 280 301 2 12 307 343 307 307 130 185 181 110 307 238 15 168 156 163 65 114 35 284 330 5 37 84 85 311 1 323 342 28 22 341 55 86
204 211 214 224 230 237 233 237 255 275 297 310 323 332 338 341 343 351 302 224 114 195 354 282 326 308 273 164 168 180 174 46 91 66 91 100 122 148 211 223 172 219 4 55 344 310 315 306 17 332 355 61 95 72
209 216 220 223 230 234 225 230 243 262 285 303 317 325 334 336 334 318 202 229 194 119 250 281 304 262 281 163 135 112 88 84 51 3 56 230 240 52 324 83 325 305 194 123 217 243 219 228 349 354 31 14 71 90
213 219 219 224 225 219 220 224 235 255 283 296 310 320 327 331 346 1 29 343 206 83 5 319 297 302 319 138 118 94 107 100 91 127 250 280 262 104 90 225 261 267 258 175 170 150 45 332 331 4 42 14 51 76
205 211 214 211 214 213 209 217 231 252 280 294 305 310 313 316 43 160 209 213 185 54 14 315 320 283 306 75 24 65 43 99 115 144 248 226 292 80 115 181 247 238 272 284 141 118 26 311 28 94 87 47 352 73
205 206 208 207 209 201 200 213 220 243 276 292 302 305 303 299 289 286 253 251 166 154 106 271 274 340 357 75 355 358 72 28 345 208 24 182 347 43 244 239 249 221 206 168 169 125 141 119 45 33 79 53 84 251
203 203 202 205 206 197 199 207 212 241 277 297 307 309 342 68 212 243 87 121 111 139 233 198 230 250 343 9 14 30 70 34 289 202 238 102 337 228 239 278 242 292 203 160 110 105 115 111 131 122 109 88 106 232
203 201 200 201 200 195 196 199 207 243 293 317 16 21 321 230 258 91 13 20 354 297 78 231 237 262 81 35 15 69 12 220 236 246 99 133 231 311 337 320 336 304 152 156 116 104 112 105 110 78 6 240 246 230
204 199 199 196 193 189 191 188 187 143 39 37 356 255 304 319 53 37 276 164 216 259 202 234 190 191 301 100 200 134 208 271 22 264 149 206 29 1 341 39 32 47 55 56 76 84 86 102 60 60 65 65 250 251
202 196 190 188 188 183 178 174 164 107 187 194 237 284 324 30 44 116 235 286 205 235 210 180 198 185 186 106 104 9 149 33 248 253 145 119 218 350 342 41 31 42 63 69 60 52 33 33 26 45 48 360 350 256
212 188 180 179 181 174 170 170 172 176 9 29 26 301 94 247 178 203 213 244 255 233 216 175 139 145 76 68 102 107 121 237 340 44 107 119 138 311 287 316 355 8 32 38 30 34 22 351 357 8 325 341 341 344
202 174 170 169 169 163 163 166 160 147 88 218 197 291 177 228 236 201 205 219 253 247 253 139 101 141 156 135 150 160 228 89 224 77 63 141 103 260 261 337 35 333 332 322 315 317 308 291 268 278 286 293 301 297
170 168 160 162 156 153 155 153 147 99 175 250 210 230 223 232 241 242 230 293 267 308 244 74 56 95 55 124 214 67 238 111 2 195 204 204 245 288 317 326 311 300 293 284 280 287 281 279 266 260 264 262 267 278
153 139 147 147 147 148 141 124 134 147 243 234 238 275 258 328 298 278 222 253 249 343 343 42 89 68 221 158 155 245 2 160 226 215 219 235 292 320 317 308 290 273 267 267 268 266 271 270 264 256 261 264 262 259
103 72 141 139 141 138 134 111 146 211 253 246 253 227 232 247 240 246 234 246 56 102 149 93 95 203 42 95 76 30 167 223 185 208 218 230 257 286 291 289 289 286 278 270 258 270 267 269 275 249 268 283 263 294
83 131 133 130 112 121 99 173 229 236 243 246 239 270 249 248 303 295 285 250 114 137 104 169 143 68 48 98 166 220 206 200 218 263 277 281 294 299 302 296 303 305 292 293 267 268 259 270 238 212 76 348 352 323
133 134 137 137 148 138 154 205 193 247 240 246 264 261 172 257 255 254 304 321 254 120 99 47 71 94 183 213 156 273 275 257 279 292 284 289 308 319 307 305 317 344 24 12 22 27 35 39 28 23 28 25 8 6
124 138 148 101 46 206 222 247 171 219 272 246 257 269 198 237 326 30 9 16 16 47 39 51 146 209 177 199 199 235 253 270 306 328 311 310 315 312 336 354 356 357 11 24 22 15 25 40 38 35 43 53 49 37
87 136 142 66 312 184 249 255 254 213 282 345 276 21 20 38 33 16 356 329 49 59 100 178 138 263 302 280 242 266 286 268 257 241 279 290 310 309 354 357 12 30 30 17 24 25 35 36 37 42 60 69 64 50
103 151 114 200 266 214 252 219 188 269 304 267 329 46 42 40 16 354 304 30 351 252 206 153 217 257 303 276 255 255 274 276 274 264 258 260 292 3 21 7 18 28 30 17 38 43 34 38 51 62 65 60 61 63
136 127 206 192 252 188 278 58 334 235 113 276 344 67 44 26 326 340 8 243 247 242 211 226 240 240 245 263 241 261 275 288 296 289 274 252 288 5 43 35 41 53 43 19 32 51 53 43 53 64 60 59 57 68
165 199 233 215 183 243 162 189 249 17 39 40 38 83 64 293 330 52 265 260 250 244 227 236 217 250 208 205 208 245 272 286 300 341 22 101 86 30 59 74 68 63 57 59 54 55 50 55 55 59 54 69 69 82
60 303 85 311 283 342 6 46 29 44 47 354 22 219 68 52 354 275 248 265 234 252 257 241 205 222 200 154 182 261 287 344 14 63 17 115 106 62 48 46 37 32 30 86 60 61 48 54 60 68 63 58 59 36
80 293 96 358 319 61 351 84 124 205 207 222 218 141 132 212 236 239 235 221 223 244 244 216 193 160 156 164 145 142 302 319 351 78 2 74 120 128 110 89 48 320 233 138 95 15 300 300 250 205 241 187 145 82
315 295 319 299 117 56 94 225 294 275 244 213 193 185 202 234 242 233 233 203 213 238 239 233 173 112 122 106 19 334 345 6 51 107 323 3 32 176 156 162 212 239 209 208 210 231 238 244 214 229 233 214 234 187
222 137 199 309 348 172 270 215 217 228 234 219 216 209 221 205 247 226 211 157 186 192 117 84 89 104 121 148 260 331 349 22 1 343 328 334 256 240 246 251 250 283 256 240 250 277 222 178 184 184 188 201 195 171
217 214 179 236 229 208 227 240 235 223 210 166 228 218 236 218 200 218 235 130 109 331 99 84 41 19 317 300 268 244 228 197 164 299 289 283 326 298 211 172 285 298 28 75 20 24 81 126 135 143 146 154 165 126
204 159 216 243 228 246 233 188 247 274 193 136 117 93 322 51 130 124 110 96 108 106 67 36 295 312 289 300 312 305 240 194 193 177 186 206 215 226 190 207 230 240 228 256 225 52 42 56 58 58 112 108 104 102
132 171 248 243 250 240 336 176 316 29 59 78 71 62 29 10 349 341 154 192 243 318 326 307 305 286 284 281 210 260 300 289 235 212 209 177 189 204 201 213 216 196 204 206 201 166 157 159 175 150 122 118 136 137
172 192 222 245 44 151 133 127 69 35 21 58 73 47 56 53 295 270 213 159 181 230 235 229 254 266 251 237 204 180 204 163 128 121 124 124 119 129 135 125 121 118 95 98 110 100 99 93 99 120 130 138 157 170
306 349 356 32 38 175 208 145 164 133 147 186 255 200 188 191 233 244 231 193 196 210 211 220 244 254 175 21 136 114 123 110 91 106 119 124 133 130 111 103 103 102 105 112 115 111 121 129 132 140 143 148 159 182